Stations météo

Publicité
Orleans, France (7249): Température de l'air & dewpoint: 16.09.2018 16:00:00 - 22.09.2018 16:00:00 (CEST)Orleans, France (7249): Température de l'air 5cm: 16.09.2018 16:00:00 - 22.09.2018 16:00:00 (CEST)Orleans, France (7249): Température de l'air -20cm & Température de l'air -100cm: 16.09.2018 16:00:00 - 22.09.2018 16:00:00 (CEST)Orleans, France (7249): Vitesse du vent & gusts: 16.09.2018 16:00:00 - 22.09.2018 16:00:00 (CEST)Orleans, France (7249): Direction du vent: 16.09.2018 16:00:00 - 22.09.2018 16:00:00 (CEST)Orleans, France (7249): reduced air pressure: 16.09.2018 16:00:00 - 22.09.2018 16:00:00 (CEST)Orleans, France (7249): visibility: 16.09.2018 16:00:00 - 22.09.2018 16:00:00 (CEST)Orleans, France (7249): Ensoleillement: 16.09.2018 16:00:00 - 22.09.2018 16:00:00 (CEST)Orleans, France (7249): Quantités de précipitations: 16.09.2018 16:00:00 - 22.09.2018 16:00:00 (CEST)
Date & Time tt [°C] td [°C] tt 5cm [°C] tt -20cm [°C] tt -100cm [°C] ff [km/h] ff [knt] fx [km/h] fx [knt] dd ppp [hPa] vv [km] sd [min] rr [mm]
22.09.2018 16:00:00 18,6 4,7 20,6 17,7 17,9 21 12 36 19 SSW 1020,7 51 17 0,0
22.09.2018 15:00:00 18,3 7,1 19,1 17,6 17,9 20 11 32 17 SW 1021,7 57 0 0,0
22.09.2018 14:00:00 17,4 7,4 19,7 17,6 17,9 22 12 34 18 SW 1022,8 60 0 0,0
22.09.2018 13:00:00 17,1 7,2 20,5 17,7 17,9 20 11 31 17 SSW 1022,5 54 26 0,0
22.09.2018 12:00:00 15,7 9,1 14,0 17,7 17,9 16 9 23 12 S 1023,1 60 16 0,0
22.09.2018 11:00:00 12,7 8,6 12,0 17,8 17,9 12 6 19 10 S 1023,9 60 0 0,0
22.09.2018 10:00:00 12,6 8,5 10,7 17,9 17,9 13 7 16 9 S 1024,0 60 20 0,0
22.09.2018 09:00:00 10,0 7,6 9,1 17,9 17,9 9 5 16 9 S 1024,2 60 13 0,0
22.09.2018 08:00:00 9,6 7,7 8,2 18,0 17,9 10 5 13 7 SSE 1024,2 60 0 0,0
22.09.2018 07:00:00 9,5 6,9 7,3 18,1 17,9 8 4 10 5 S 1023,9 60 0 0,0
22.09.2018 06:00:00 9,4 7,0 6,9 18,2 17,9 8 4 10 5 SSW 1023,7 60 0 0,0
22.09.2018 05:00:00 9,4 6,8 6,6 18,3 17,9 6 3 11 6 SSW 1024,1 60 0 0,0
22.09.2018 04:00:00 10,1 6,6 7,2 18,4 17,9 9 5 11 6 S 1023,9 60 0 0,0
22.09.2018 03:00:00 11,0 6,7 8,8 18,5 17,9 9 5 12 6 S 1023,9 60 0 0,0
22.09.2018 02:00:00 11,5 6,8 9,3 18,6 17,9 9 5 14 7 SSW 1024,3 60 0 0,0
22.09.2018 01:00:00 10,7 6,6 8,3 18,7 17,9 9 5 11 6 WSW 1024,0 60 0 0,0
22.09.2018 00:00:00 11,5 6,4 8,3 18,8 17,9 9 5 11 6 SW 1024,0 60 0 0,0
21.09.2018 23:00:00 11,6 6,5 9,0 18,9 17,9 6 4 11 6 SSW 1023,2 60 0 0,0
21.09.2018 22:00:00 11,9 6,6 6,2 19,0 17,9 9 5 14 8 WSW 1022,8 60 0 0,0
21.09.2018 21:00:00 11,9 6,2 9,0 19,0 17,9 8 4 18 10 W 1022,1 60 0 0,0
21.09.2018 20:00:00 13,8 5,7 12,0 19,0 17,9 13 7 24 13 WNW 1020,5 60 22 0,0
21.09.2018 19:00:00 16,4 4,7 16,0 19,0 17,9 21 12 32 17 W 1019,8 50 29 0,0
21.09.2018 18:00:00 17,1 6,0 17,3 19,0 17,9 21 11 38 21 W 1019,3 51 0 0,0
21.09.2018 17:00:00 17,8 6,0 18,7 19,1 17,9 24 13 37 20 W 1018,7 45 3 0,0
21.09.2018 16:00:00 18,1 5,6 17,5 19,0 17,9 26 14 46 25 WNW 1018,1 60 27 0,0
21.09.2018 15:00:00 17,0 9,2 17,3 19,1 17,9 22 12 36 20 W 1017,4 60 31 0,0
21.09.2018 14:00:00 16,3 8,5 17,8 19,1 17,9 29 16 42 23 W 1016,9 40 11 0,0
21.09.2018 13:00:00 16,5 10,3 17,5 19,1 17,9 26 14 39 21 W 1016,3 39 4 0,0
21.09.2018 12:00:00 15,6 11,0 15,8 19,2 17,9 24 13 37 20 WNW 1015,5 20 0 0,0
21.09.2018 11:00:00 14,8 12,3 13,7 19,2 17,9 25 13 34 19 W 1014,4 20 0 0,0
21.09.2018 10:00:00 13,5 12,6 12,1 19,3 17,9 15 8 51 28 W 1013,2 53 0 1,3
21.09.2018 09:00:00 14,3 13,2 13,7 19,3 17,9 28 15 50 27 WNW 1011,8 4,1 0 2,4
21.09.2018 08:00:00 17,2 15,7 15,7 19,4 17,9 32 17 48 26 SSW 1010,3 3,6 0 1,8
21.09.2018 07:00:00 17,4 14,7 15,7 19,4 17,9 32 18 48 26 SSW 1010,1 12 0 0,0
21.09.2018 06:00:00 17,6 13,5 16,5 19,5 17,9 28 15 41 22 SW 1010,3 47 0 0,0
21.09.2018 05:00:00 17,5 13,6 16,5 19,5 17,9 25 14 37 20 SW 1010,7 45 0 0,0
21.09.2018 04:00:00 17,4 13,5 16,1 19,6 17,9 22 12 29 16 SW 1010,8 47 0 0,0
21.09.2018 03:00:00 17,4 13,3 16,0 19,6 17,9 14 7 21 11 SSW 1011,3 39 0 0,0
21.09.2018 02:00:00 18,3 13,2 17,0 19,7 17,9 16 9 29 16 SW 1011,9 47 0 0,0
21.09.2018 01:00:00 18,5 12,9 17,2 19,7 17,9 18 10 26 14 SW 1012,1 52 0 0,0
21.09.2018 00:00:00 19,2 12,2 17,7 19,7 17,9 14 8 21 11 SW 1012,2 59 0 0,0
20.09.2018 23:00:00 20,1 11,6 17,3 19,8 17,9 14 7 21 11 SSW 1012,6 60 0 0,0
20.09.2018 22:00:00 20,1 11,6 15,6 19,7 17,9 9 5 11 6 S 1013,0 60 0 0,0
20.09.2018 21:00:00 20,7 10,8 16,8 19,7 17,9 8 5 12 6 SSW 1013,3 60 0 0,0
20.09.2018 20:00:00 22,9 10,7 20,4 19,6 17,9 10 6 26 14 SW 1013,6 60 0 0,0
20.09.2018 19:00:00 24,7 10,9 24,2 19,5 17,9 18 10 32 18 SW 1014,0 52 11 0,0
20.09.2018 18:00:00 25,9 10,1 27,9 19,3 17,9 27 14 37 20 SW 1014,5 45 60 0,0
20.09.2018 17:00:00 26,1 11,4 30,9 19,2 17,9 22 12 36 20 SW 1015,2 38 60 0,0
20.09.2018 16:00:00 25,5 12,3 30,6 19,1 17,9 24 13 37 20 SSW 1016,2 36 60 0,0
20.09.2018 15:00:00 24,3 13,2 29,1 19,0 17,9 21 11 36 19 SSW 1017,3 35 60 0,0
20.09.2018 14:00:00 22,5 13,6 23,3 19,0 17,9 22 12 38 21 SW 1018,3 33 38 0,0
20.09.2018 13:00:00 20,9 13,8 22,6 18,9 17,9 19 10 35 19 SW 1019,3 20 3 0,0
20.09.2018 12:00:00 20,1 14,5 23,0 19,0 17,9 18 10 26 14 SSW 1019,8 45 24 0,0
20.09.2018 11:00:00 18,7 14,2 20,6 19,0 17,9 14 8 21 11 SSW 1020,3 36 55 0,0
20.09.2018 10:00:00 16,2 14,0 15,1 19,1 17,9 11 6 17 9 SSW 1020,1 15 31 0,0
20.09.2018 09:00:00 13,4 12,5 12,6 19,2 17,9 9 5 12 7 SSW 1020,5 1,7 0 0,0
20.09.2018 08:00:00 12,7 11,8 10,6 19,2 17,9 6 3 9 5 SW 1020,2 10 0 0,0
20.09.2018 07:00:00 13,2 11,8 11,6 19,3 17,9 9 5 16 8 SW 1020,3 14 0 0,0
20.09.2018 06:00:00 13,6 11,6 12,0 19,5 17,9 11 6 16 8 SSW 1020,4 19 0 0,0
20.09.2018 05:00:00 13,9 11,4 11,9 19,5 17,9 11 6 16 9 SSW 1020,5 33 0 0,0
20.09.2018 04:00:00 14,9 11,9 12,6 19,6 17,9 11 6 14 8 SSW 1020,3 39 0 0,0
20.09.2018 03:00:00 15,3 11,7 12,7 19,7 17,9 9 5 12 6 SW 1020,2 39 0 0,0
20.09.2018 02:00:00 16,3 11,7 13,6 19,7 17,9 10 5 12 7 SW 1020,0 43 0 0,0
20.09.2018 01:00:00 16,7 11,4 14,6 19,8 17,9 10 5 14 8 SW 1020,4 43 0 0,0
20.09.2018 00:00:00 17,8 11,8 15,6 19,8 17,9 10 5 16 8 SW 1020,4 44 0 0,0
19.09.2018 23:00:00 18,7 12,2 15,2 19,8 18,0 11 6 14 7 SW 1020,2 50 0 0,0
19.09.2018 22:00:00 20,1 12,1 11,5 19,8 17,9 9 5 12 6 SW 1020,0 58 0 0,0
19.09.2018 21:00:00 20,3 11,8 12,6 19,8 17,9 7 4 16 9 SSW 1019,5 58 0 0,0
19.09.2018 20:00:00 21,8 11,8 19,7 19,7 17,9 15 8 29 16 W 1019,3 60 34 0,0
19.09.2018 19:00:00 24,5 12,1 24,4 19,6 17,9 19 10 35 19 WSW 1019,0 44 53 0,0
19.09.2018 18:00:00 25,6 11,7 28,8 19,4 17,9 25 13 43 23 WSW 1018,9 37 60 0,0
19.09.2018 17:00:00 25,7 11,8 29,4 19,3 17,9 25 13 46 25 WSW 1019,1 33 60 0,0
19.09.2018 16:00:00 25,7 12,9 26,7 19,2 17,9 25 13 48 26 WSW 1019,5 37 57 0,0
19.09.2018 15:00:00 25,6 13,4 26,3 19,1 17,9 26 14 40 22 WSW 1019,7 19 41 0,0
19.09.2018 14:00:00 24,8 13,0 25,7 19,1 17,9 25 14 41 22 WSW 1019,9 18 40 0,0
19.09.2018 13:00:00 23,5 13,4 22,7 19,1 17,9 26 14 41 22 WSW 1020,1 20 11 0,0
19.09.2018 12:00:00 21,8 13,2 23,7 19,1 17,9 26 14 36 19 WSW 1020,4 36 43 0,0
19.09.2018 11:00:00 21,4 15,0 24,3 19,1 17,9 21 12 30 16 SSW 1019,9 39 60 0,0
19.09.2018 10:00:00 19,1 15,2 19,5 19,2 17,9 14 8 21 11 SSW 1019,6 19 60 0,0
19.09.2018 09:00:00 16,8 14,6 15,9 19,2 17,9 11 6 15 8 S 1019,5 17 13 0,0
19.09.2018 08:00:00 16,3 14,3 14,8 19,3 17,9 9 5 12 7 SSW 1019,3 19 0 0,0
19.09.2018 07:00:00 16,5 14,1 13,9 19,3 17,9 9 5 10 6 SSW 1018,8 19 0 0,0
19.09.2018 06:00:00 16,4 14,4 14,0 19,4 17,9 5 3 13 7 SW 1018,3 19 0 0,0
19.09.2018 05:00:00 15,8 13,8 14,1 19,5 18,0 11 6 14 7 W 1018,5 19 0 0,0
19.09.2018 04:00:00 16,6 14,4 14,6 19,5 17,9 8 5 11 6 SW 1018,3 19 0 0,0
19.09.2018 03:00:00 17,6 15,0 15,9 19,6 18,0 8 5 12 7 SW 1017,9 25 0 0,0
19.09.2018 02:00:00 18,3 15,4 16,7 19,6 17,9 11 6 18 10 SW 1017,9 31 0 0,0
19.09.2018 01:00:00 18,8 15,7 16,2 19,6 18,0 11 6 17 9 SSW 1017,5 39 0 0,0
19.09.2018 00:00:00 18,6 15,3 16,6 19,6 18,0 9 5 16 9 S 1017,3 40 0 0,0
18.09.2018 23:00:00 19,7 15,6 17,5 19,6 17,9 11 6 16 9 S 1017,0 54 0 0,0
18.09.2018 22:00:00 20,2 16,2 18,2 19,6 18,0 11 6 15 8 S 1017,1 52 0 0,0
18.09.2018 21:00:00 21,1 16,5 18,8 19,6 18,0 11 6 14 8 S 1016,5 53 0 0,0
18.09.2018 20:00:00 21,9 15,7 19,0 19,5 18,0 8 4 16 9 SSW 1016,0 60 27 0,0
18.09.2018 19:00:00 23,4 16,2 24,0 19,5 18,0 10 5 19 10 SSW 1015,6 57 45 0,0
18.09.2018 18:00:00 23,3 17,5 20,2 19,4 18,0 8 4 24 13 SSW 1015,7 41 6 0,0
18.09.2018 17:00:00 22,8 16,3 23,3 19,3 17,9 20 11 31 17 W 1015,7 20 0 0,0
18.09.2018 16:00:00 24,0 15,5 25,4 19,2 18,0 16 9 33 18 SW 1015,9 20 0 0,0
18.09.2018 15:00:00 23,7 16,0 22,5 19,1 17,9 20 11 31 17 SSW 1016,1 44 8 0,0
18.09.2018 14:00:00 23,3 15,9 25,4 19,1 18,0 19 10 39 21 SSW 1016,1 53 6 0,0
18.09.2018 13:00:00 23,8 15,8 25,2 19,1 18,0 24 13 34 19 SW 1016,0 18 21 0,0
18.09.2018 12:00:00 21,0 16,4 21,1 19,1 18,0 19 10 32 17 SSW 1015,9 40 0 0,0
18.09.2018 11:00:00 19,6 16,1 19,1 19,1 18,0 19 10 29 16 SW 1015,9 20 0 0,0
18.09.2018 10:00:00 18,8 16,0 18,5 19,1 18,0 15 8 26 14 SW 1015,2 20 0 0,0
18.09.2018 09:00:00 18,0 15,4 16,7 19,2 18,0 14 8 23 12 WSW 1014,8 18 0 0,0
18.09.2018 08:00:00 17,0 14,3 15,3 19,2 18,0 13 7 34 18 SW 1014,4 20 0 0,0
18.09.2018 07:00:00 17,2 13,3 15,7 19,3 18,0 18 10 27 14 WSW 1013,8 34 0 0,0
18.09.2018 06:00:00 18,0 13,3 16,2 19,3 18,0 14 7 18 10 SSW 1013,0 48 0 0,0
18.09.2018 05:00:00 18,4 12,8 16,5 19,4 18,0 12 6 19 10 SSW 1012,6 57 0 0,0
18.09.2018 04:00:00 19,1 12,1 17,3 19,4 18,0 11 6 16 9 S 1012,4 60 0 0,0
18.09.2018 03:00:00 20,1 12,1 17,9 19,5 18,0 12 6 16 9 S 1012,1 60 0 0,0
18.09.2018 02:00:00 20,0 10,1 17,9 19,5 18,0 12 7 16 9 S 1012,1 60 0 0,0
18.09.2018 01:00:00 21,2 9,7 18,6 19,5 18,0 9 5 19 11 S 1012,2 60 0 0,0
18.09.2018 00:00:00 22,1 8,6 18,4 19,6 18,0 11 6 22 12 S 1012,2 60 0 0,0
17.09.2018 23:00:00 21,6 8,8 16,7 19,6 18,0 11 6 18 10 SE 1012,3 60 0 0,0
17.09.2018 22:00:00 21,4 8,3 15,2 19,5 18,0 11 6 16 9 SE 1012,5 60 0 0,0
17.09.2018 21:00:00 22,6 8,3 14,8 19,4 18,0 8 4 13 7 SE 1012,5 60 0 0,0
17.09.2018 20:00:00 27,0 8,4 18,5 19,2 18,0 5 3 14 7 SSE 1012,4 60 38 0,0
17.09.2018 19:00:00 29,3 7,2 30,6 19,0 18,0 11 6 28 15 SSW 1012,7 58 60 0,0
17.09.2018 18:00:00 30,0 6,6 34,4 18,8 18,0 15 8 32 17 S 1013,0 60 60 0,0
17.09.2018 17:00:00 29,8 7,1 36,6 18,6 18,0 17 9 34 18 SSW 1013,6 60 60 0,0
17.09.2018 16:00:00 29,9 6,5 37,4 18,4 18,0 16 8 29 16 S 1014,4 60 60 0,0
17.09.2018 15:00:00 29,1 4,5 36,7 18,3 18,0 17 9 31 17 S 1015,1 60 60 0,0
17.09.2018 14:00:00 28,1 6,2 36,4 18,2 18,0 9 5 24 13 SSE 1016,0 60 60 0,0
17.09.2018 13:00:00 27,0 5,3 34,5 18,2 18,0 9 5 22 12 S 1017,1 60 60 0,0
17.09.2018 12:00:00 25,1 6,3 31,5 18,2 18,0 6 3 13 7 ESE 1018,1 20 60 0,0
17.09.2018 11:00:00 21,7 7,1 25,6 18,3 18,0 0 0 18 10 N 1018,8 20 60 0,0
17.09.2018 10:00:00 18,6 7,4 19,1 18,4 18,0 3 2 10 5 SE 1018,7 57 60 0,0
17.09.2018 09:00:00 14,7 7,7 7,9 18,5 18,1 8 4 12 7 SSE 1018,8 59 60 0,0
17.09.2018 08:00:00 8,9 5,3 3,9 18,7 18,1 6 4 10 5 E 1019,0 60 5 0,0
17.09.2018 07:00:00 7,5 3,5 2,6 18,8 18,1 3 2 10 5 NE 1019,7 60 0 0,0
17.09.2018 06:00:00 8,2 3,8 2,9 18,9 18,0 0 0 7 4 N 1019,9 60 0 0,0
17.09.2018 05:00:00 8,3 3,9 3,8 19,0 18,0 6 4 10 6 N 1019,9 60 0 0,0
17.09.2018 04:00:00 10,4 4,3 4,1 19,1 18,1 4 2 6 4 ENE 1019,9 60 0 0,0
17.09.2018 03:00:00 11,1 5,0 4,1 19,2 18,1 0 0 7 4 N 1020,0 60 0 0,0
17.09.2018 02:00:00 10,7 4,8 6,0 19,3 18,1 8 4 11 6 NNW 1020,4 60 0 0,0
17.09.2018 01:00:00 13,4 5,3 7,9 19,3 18,1 4 2 9 5 NE 1020,2 60 0 0,0
17.09.2018 00:00:00 14,4 6,0 7,9 19,4 18,1 3 2 6 3 NNW 1020,6 60 0 0,0
16.09.2018 23:00:00 14,7 7,7 8,8 19,4 18,1 0 0 3 2 N 1020,6 60 0 0,0
16.09.2018 22:00:00 16,9 4,9 9,4 19,4 18,1 2 1 7 4 E 1020,2 60 0 0,0
16.09.2018 21:00:00 19,1 4,8 12,2 19,3 18,1 4 2 7 4 NNE 1019,9 60 0 0,0
16.09.2018 20:00:00 21,1 5,4 15,1 19,2 18,1 7 4 8 4 N 1019,5 60 0 0,0
16.09.2018 19:00:00 23,6 5,0 21,7 19,0 18,1 3 2 12 6 NNW 1019,1 60 8 0,0
16.09.2018 18:00:00 25,2 4,3 27,0 18,8 18,1 9 5 16 8 NW 1018,8 56 8 0,0
16.09.2018 17:00:00 25,4 4,5 28,2 18,6 18,1 5 3 17 9 NNW 1018,8 58 21 0,0
16.09.2018 16:00:00 26,2 4,6 33,8 18,5 18,1 3 2 16 9 E 1019,0 57 58 0,0

tt = Température de l'air
td = dewpoint
tt 5cm = Température de l'air 5cm
tt -20cm = Température de l'air -20cm
tt -100cm = Température de l'air -100cm
ff = Vitesse du vent
fx = gusts
dd = Direction du vent
ppp = reduced air pressure
vv = visibility
sd = Ensoleillement
rr = Quantités de précipitations

stations d'obs. à proximité